Location: Focicchia
(42.2496°N, 9.2935°E)
Time: 02:45:28
(UTC+00:00)

SL-4 R/B - Pass Details

Date: 07 June 2020
Orbit: 428 x 666 km, 51.6° (Epoch: 06 July)

Event Time Altitude Azimuth Distance (km) Brightness Sun altitude
Rises 01:08:31 0° 304° (NW) 3,007 5.9 -20.4°
Reaches altitude 10° 01:10:55 10° 307° (NW) 2,087 5.1 -20.3°
Maximum altitude 01:15:44 67° 30° (NNE) 708 2.7 -19.8°
Drops below altitude 10° 01:20:22 10° 114° (ESE) 2,005 4.9 -19.4°
Sets 01:22:38 0° 117° (ESE) 2,878 5.7 -19.2°
